Hourly Weather Roundup
Issued by NWS Central Illinois

Home | Current Version | Previous Version | Text Only | Print | Product List | Glossary On
Versions: 1 2 3 4 5 6 7 8 9 10 11 12 13 14 15 16 17 18 19 20 21 22 23 24 25 26 27 28 29 30 31 32 33 34 35 36 37 38 39 40 41 42 43 44 45 46 47 48 49 50
000
NZUS43 KILX 111610
HWRILX

AREA WEATHER ROUNDUP
NATIONAL WEATHER SERVICE, LINCOLN IL
1100 AM CDT FRI JUL 11 2014


CITY           SKY/WX    TMP DP  RH WIND       PRES   REMARKS
BLOOMINGTON    SUNNY     75  58  55 S9        30.23S
CHAMPAIGN      SUNNY     78  60  53 S6        30.23R
DECATUR        SUNNY     79  62  56 S7        30.21S HX  80
EFFINGHAM      SUNNY     80  57  45 S6        30.21S HX  80
FLORA          SUNNY     79  61  53 CALM      30.21R HX  80
GALESBURG      PTSUNNY   74  63  67 S7        30.18R
JACKSONVILLE   SUNNY     80  64  56 S10       30.18F HX  82
LACON          MOSUNNY   76  58  54 SE8       30.18F
LAWRENCEVILLE  SUNNY     82  60  47 VRB3      30.21R HX  82
LITCHFIELD     SUNNY     78  62  57 S8        30.20S HX  80
$$


CITY           SKY/WX    TMP DP  RH WIND       PRES   REMARKS
LINCOLN        SUNNY     79  62  55 S7        30.18S HX  80
MACOMB         MOSUNNY   76  63  63 S10       30.19S
MATTOON        SUNNY     79  58  48 S7        30.21R HX  80
MT CARMEL AP   SUNNY     82  61  47 CALM      30.20R HX  83
OLNEY-NOBLE AP SUNNY     79  63  57 CALM      30.22R HX  80
PARIS          SUNNY     78  60  53 CALM      30.22S HX  80
PEORIA         SUNNY     78  61  55 S9        30.18F HX  80
PONTIAC          N/A     77  61  57 S6        30.21S
RANTOUL        SUNNY     78  56  47 SE5       30.23S
ROBINSON       SUNNY     82  61  49 SE3       30.22R HX  83
SPRINGFIELD    SUNNY     80  63  55 S7        30.19F HX  81
TAYLORVILLE    SUNNY     77  63  61 S7        30.20S
$$

...REGIONAL REPORTS...


CITY           SKY/WX    TMP DP  RH WIND       PRES   REMARKS
CHICAGO O`HARE MOSUNNY   77  52  41 SW7       30.20S
KANKAKEE       SUNNY     76  56  49 E3        30.22S
MOLINE         PTSUNNY   75  60  59 S12       30.15S
MOUNT VERNON   SUNNY     82  64  54 SE3       30.21S HX  84
PITTSFIELD     SUNNY     79  64  60 S8        30.17F HX  80
QUINCY         SUNNY     79  62  56 S12       30.14F HX  80
ROCKFORD       PTSUNNY   76  56  49 S14       30.20S
$$


CITY           SKY/WX    TMP DP  RH WIND       PRES   REMARKS
BURLINGTON     MOSUNNY   76  63  64 S12       30.14F
CEDAR RAPIDS   CLOUDY    71  59  65 S12       30.12S
DES MOINES     CLOUDY    69  65  86 S5        30.07S
KIRKSVILLE     PTSUNNY   78  68  71 SE12      30.10F HX  80
OTTUMWA        CLOUDY    73  64  73 S8        30.09F
ST LOUIS       MOSUNNY   83  63  50 SE9       30.19R HX  84
$$


CITY           SKY/WX    TMP DP  RH WIND       PRES   REMARKS
TERRE HAUTE    SUNNY     78  60  53 S3        30.22S
EVANSVILLE     MOSUNNY   81  62  52 E5        30.20S HX  82
INDIANAPOLIS   MOSUNNY   77  55  46 VRB5      30.22F
LAFAYETTE      MOSUNNY   77  52  41 VRB3      30.22S
MADISON        PTSUNNY   77  56  48 SW10G17   30.18R
MILWAUKEE      MOSUNNY   76  56  49 S7        30.18F
$$




USA.gov is the U.S. government's official web portal to all federal, state and local government web resources and services.